Temperature
15 15 15 15 15 15 15 15 16 16 16 16 16 16 16 16 16 15 16 16 16 16 16 16 16 16 17 17 17 17 17 17 17 17 17 17 17 18 17 18 18 18 18
15 15 15 15 15 15 15 15 16 15 16 16 15 15 16 15 15 15 15 16 16 16 16 16 16 16 16 16 17 17 17 17 17 17 17 17 17 17 17 17 18 18 18
15 15 15 15 15 15 15 15 15 16 15 15 15 15 15 15 15 15 15 15 15 16 16 16 16 16 16 16 16 16 16 16 17 17 17 17 17 17 17 17 17 18 18
15 15 15 15 15 15 15 15 15 15 15 15 15 15 15 15 15 15 15 15 15 15 15 16 16 16 16 16 16 16 16 16 16 17 17 17 17 17 17 17 17 17 17
15 15 15 15 15 15 15 15 15 15 15 15 15 15 15 15 15 15 15 15 15 15 15 15 16 16 16 16 16 16 16 16 16 16 17 17 17 17 17 17 17 17 17
15 15 15 15 15 15 15 15 15 15 15 15 15 15 15 15 15 15 15 15 15 15 15 15 15 15 16 16 16 16 16 16 16 16 16 16 17 17 17 17 17 17 17
15 15 15 15 15 15 15 15 15 15 15 15 15 15 15 15 15 14 14 14 14 15 15 15 15 15 15 15 15 16 16 16 16 16 16 16 16 16 17 17 17 17 17
15 15 15 15 15 15 15 15 15 15 15 15 16 16 15 15 14 14 14 14 14 14 14 14 14 15 15 14 15 15 15 15 16 16 16 16 16 16 16 16 17 17 17
15 15 15 15 15 15 15 15 15 15 15 15 15 16 16 16 15 14 14 14 14 14 14 14 14 14 14 14 14 15 15 15 15 15 15 16 16 16 16 16 16 16 16
15 15 15 15 15 15 15 15 15 15 15 15 15 15 15 15 15 15 14 14 14 14 14 14 14 14 14 14 14 14 14 15 15 15 15 15 15 15 16 16 16 16 16
15 15 15 15 15 15 15 15 15 15 15 15 15 15 15 15 16 15 15 14 14 14 14 14 14 14 14 14 14 14 14 14 15 15 15 15 15 15 15 15 15 16 16
15 15 15 15 15 15 15 15 15 15 15 15 15 15 15 15 15 15 15 14 14 13 13 13 13 13 14 14 14 14 14 14 14 14 14 15 15 15 15 15 15 15 15
15 15 15 15 15 15 15 15 15 15 15 15 14 15 15 15 15 15 15 15 14 13 13 13 13 13 13 13 13 13 13 14 14 14 14 14 14 14 14 14 14 15 15
15 15 15 15 15 15 15 15 14 14 14 14 14 14 14 14 14 14 14 14 15 14 13 13 13 13 13 13 13 13 13 13 13 13 13 13 14 14 14 14 14 14 14
15 15 15 15 15 15 14 14 14 14 14 14 14 14 14 14 14 14 14 14 15 15 14 13 12 12 12 13 13 12 13 13 13 13 13 13 13 13 13 13 14 14 14
15 15 15 15 15 14 14 14 14 14 14 15 15 14 14 14 14 14 14 14 14 14 14 13 12 12 12 12 13 12 12 13 13 13 13 13 13 13 13 13 13 13 13
15 15 15 15 15 15 14 14 14 14 14 14 14 14 14 14 14 14 14 14 14 14 13 12 12 12 12 12 12 12 12 12 12 12 13 13 13 13 13 13 13 13 13
15 15 15 15 15 15 14 14 14 14 14 14 14 14 14 14 14 13 13 13 13 13 13 13 12 12 12 12 12 12 12 12 12 12 12 12 12 12 12 12 12 12 12
15 15 15 15 15 15 14 14 14 14 14 14 14 14 13 13 13 13 13 13 13 13 13 12 12 12 12 12 12 12 12 12 11 11 12 12 12 12 12 12 12 12 12
15 15 15 15 15 15 14 14 14 14 14 14 14 14 13 13 13 13 13 13 13 12 12 12 12 12 12 12 11 11 11 11 11 11 11 11 11 11 11 11 11 11 11
15 15 15 15 15 15 14 14 14 14 14 14 14 14 14 13 13 13 13 13 12 12 12 12 12 12 11 11 11 11 11 11 11 11 11 10 10 10 10 10 11 11 11
16 15 15 15 15 15 15 15 14 14 14 13 13 13 13 13 13 13 13 13 13 12 12 12 11 11 11 11 11 11 11 11 10 10 10 10 10 10 10 10 10 10 10
16 16 15 15 15 15 15 15 14 14 13 13 13 13 13 13 13 13 13 13 13 12 12 12 11 11 11 11 11 11 10 10 10 10 10 10 10 10 10 10 10 10 10
16 16 15 15 15 15 15 14 14 14 13 13 13 13 13 13 13 13 12 12 12 12 12 12 11 11 11 11 11 11 10 10 10 10 10 10 10 9 9 9 9 9 9
16 16 15 15 15 15 14 14 14 14 13 13 13 13 13 13 13 13 12 12 12 12 12 12 12 11 11 11 11 10 10 10 10 9 9 9 9 9 9 9 9 9 9
16 16 15 15 15 14 14 14 14 13 13 13 13 13 13 13 13 12 12 12 12 11 11 11 11 11 11 10 10 10 10 9 9 9 9 8 8 8 8 8 8 8 8
Wind_Speed
4 4 4 4 4 4 4 4 4 6 6 7 6 6 7 7 7 7 9 13 13 12 12 11 10 10 10 10 10 10 9 9 9 9 9 9 9 9 8 7 7 7 5
4 3 4 4 4 4 4 4 6 6 6 7 7 7 7 7 8 7 8 10 13 14 13 12 12 12 11 11 11 10 10 10 10 10 10 10 10 10 9 8 8 8 7
5 4 4 4 4 4 5 4 6 6 6 7 7 7 7 8 8 8 8 7 9 13 14 14 13 13 13 12 11 10 10 9 9 9 10 10 10 9 9 9 8 8 7
6 5 4 4 4 4 4 4 4 5 6 6 6 6 7 7 8 8 8 8 8 8 11 14 14 14 14 13 13 12 11 10 10 10 10 9 9 9 9 9 9 9 8
6 5 4 3 4 4 4 4 5 5 6 6 6 6 6 6 7 8 9 9 9 8 8 10 12 15 15 15 14 13 12 11 11 10 10 10 10 9 8 9 9 9 9
6 6 4 4 4 4 4 5 5 5 6 5 7 7 7 6 6 7 7 8 9 10 10 9 8 11 14 16 16 15 14 13 12 11 10 10 10 9 8 9 9 9 9
6 6 4 5 4 4 4 5 5 7 5 5 6 6 7 8 7 7 7 7 8 9 10 10 10 9 9 13 17 16 15 14 13 12 11 10 10 9 9 9 10 10 9
6 5 5 4 4 4 4 4 4 4 4 2 2 3 4 5 6 7 6 6 7 8 9 11 11 11 11 10 14 17 16 15 14 13 12 11 11 11 11 11 11 11 11
6 6 6 5 4 4 4 3 3 3 3 3 2 1 1 2 3 5 7 7 7 7 8 9 11 11 11 12 12 16 17 16 15 15 14 13 13 13 12 12 12 12 12
6 6 6 6 5 4 4 3 3 2 2 3 3 3 3 3 1 3 4 6 7 8 8 8 9 11 12 11 13 18 18 17 17 16 16 15 14 14 14 13 13 12 11
5 6 6 6 6 5 5 4 4 3 2 2 2 2 3 3 1 2 3 3 5 6 7 8 8 9 11 12 12 16 18 17 16 16 16 16 15 14 14 14 13 12 11
4 6 6 6 6 5 5 5 4 4 4 4 3 3 2 2 2 2 3 3 4 5 6 7 8 8 9 10 13 16 17 18 17 17 17 17 16 16 15 15 14 13 12
4 5 5 5 5 6 6 5 5 5 5 5 4 3 3 3 2 2 2 3 3 3 4 5 7 8 8 9 10 12 16 17 17 17 17 17 16 16 16 16 15 15 14
4 4 5 5 6 5 6 5 5 6 5 6 6 5 4 4 3 2 2 2 2 3 4 5 5 8 8 8 9 9 12 16 16 16 16 16 16 16 16 15 15 15 15
4 5 5 5 6 5 6 5 5 6 6 6 5 5 4 4 3 3 2 2 1 2 3 4 4 6 6 8 9 9 10 14 15 15 15 14 15 15 15 15 15 14 14
5 5 5 5 6 5 6 5 5 5 6 6 5 5 5 4 4 3 3 3 3 2 3 3 3 4 6 6 8 8 9 10 14 14 13 13 13 13 13 14 14 14 14
5 5 5 5 5 5 6 5 5 5 6 6 6 6 6 5 4 4 3 3 3 3 3 3 3 4 4 5 6 6 6 7 9 13 12 12 12 12 12 13 13 13 13
5 5 5 5 5 5 5 5 5 5 5 6 6 6 6 5 5 4 3 4 4 3 3 3 3 3 4 5 5 5 5 6 6 10 10 11 11 11 11 11 11 11 12
6 6 5 5 5 5 5 5 5 5 5 5 5 5 5 5 4 4 3 4 3 3 2 2 3 2 2 3 3 4 5 5 5 5 6 7 8 9 9 9 10 10 11
6 6 5 5 4 4 4 4 5 4 5 5 5 5 5 4 4 4 3 3 3 3 2 2 2 2 2 3 3 3 3 3 3 4 5 4 4 4 5 7 8 9 9
6 6 5 5 4 3 3 3 4 4 4 4 4 4 5 6 8 5 3 3 2 2 1 2 2 2 2 3 3 3 3 3 3 3 4 4 4 4 3 3 5 7 8
7 6 6 5 5 4 4 2 1 4 4 4 3 3 4 4 5 5 6 7 6 3 2 2 2 2 3 3 3 4 4 4 3 3 5 4 4 4 4 4 5 6 7
7 7 6 6 6 6 7 5 2 2 3 3 3 3 3 2 2 3 4 3 3 4 4 3 3 3 3 4 4 4 4 5 5 4 5 4 4 4 4 4 2 5 7
8 7 7 6 6 6 8 7 6 4 3 3 2 2 3 2 1 0 1 1 2 2 2 2 2 3 4 4 4 5 5 5 4 3 4 5 5 6 6 5 2 4 7
8 8 7 7 7 7 9 8 7 5 4 3 3 2 2 2 3 2 1 1 0 1 2 2 3 3 4 4 5 4 5 5 5 4 3 5 6 7 7 5 4 5 8
8 7 7 7 7 7 9 9 9 5 5 4 3 3 2 0 2 1 2 2 1 1 1 1 2 2 3 2 3 4 5 5 6 5 3 5 6 6 6 5 6 8 9
Wind_Direction
62 71 79 75 78 82 95 95 100 98 96 90 90 90 88 81 74 71 74 61 49 45 44 41 37 39 42 42 39 35 34 33 33 32 27 25 25 27 25 31 31 32 30
61 70 85 79 81 79 78 92 99 103 93 87 84 84 82 81 73 68 72 77 64 51 44 40 40 43 43 40 37 34 34 34 33 30 27 26 26 26 27 30 33 35 37
58 73 75 81 81 90 94 90 97 99 100 100 93 86 78 71 70 68 64 65 72 64 52 43 43 44 42 39 37 36 35 35 35 35 31 28 25 25 28 29 33 37 44
61 68 72 76 78 89 101 105 103 102 101 99 93 87 87 76 70 66 65 63 57 59 59 49 44 41 38 37 36 36 35 36 39 39 36 32 28 27 30 33 38 45 52
59 71 65 71 87 94 101 108 102 104 104 102 101 92 84 74 69 66 64 60 60 54 53 61 54 47 39 35 34 36 35 37 38 39 37 35 33 32 34 38 44 50 55
53 65 76 81 84 96 97 101 104 100 104 108 100 91 81 79 70 63 60 61 57 54 48 44 48 56 49 39 34 34 34 36 37 36 36 37 36 37 44 47 51 57 64
58 62 64 71 74 92 99 110 113 115 109 114 112 106 92 77 71 64 56 57 58 54 53 48 43 37 47 50 39 32 33 35 35 36 37 39 40 46 54 57 60 61 67
56 59 62 75 80 93 97 103 116 120 115 115 130 135 122 101 68 59 59 55 53 53 50 48 47 41 38 39 43 36 34 34 36 38 40 43 48 51 56 60 65 66 66
55 56 59 64 73 87 95 96 119 127 124 104 49 9 91 104 105 70 56 57 52 48 48 46 45 41 40 39 37 37 34 35 38 41 43 48 52 54 58 62 67 66 66
62 59 62 61 70 73 87 94 86 113 126 119 88 40 34 82 124 118 82 65 57 51 46 45 43 41 39 42 44 38 35 37 40 42 47 50 53 55 57 61 62 63 64
67 64 64 67 70 73 73 75 78 78 93 80 86 87 78 76 63 103 102 85 71 56 47 43 44 41 39 42 41 37 36 40 42 43 45 47 50 53 55 57 56 56 59
82 73 68 71 72 73 74 75 79 79 72 72 72 82 85 76 82 93 108 101 79 64 55 46 42 41 41 45 45 39 41 42 44 46 46 46 47 48 50 51 52 52 52
99 86 79 77 74 74 76 76 79 78 79 75 72 68 62 65 66 81 104 106 96 87 68 59 46 41 43 45 44 37 47 43 46 47 46 46 47 47 47 47 48 48 48
104 100 89 83 84 85 86 78 78 74 77 79 76 74 76 71 69 69 72 102 114 103 79 64 53 43 42 44 36 34 50 45 46 48 48 47 47 47 46 46 46 45 44
117 112 103 99 92 87 85 85 78 78 77 75 76 79 76 76 73 61 52 18 6 108 88 58 49 42 42 47 24 41 49 48 47 48 49 49 48 48 47 46 45 44 42
124 123 122 113 107 101 95 85 83 77 88 79 68 73 71 79 69 63 50 35 15 30 81 69 55 47 36 44 37 43 54 62 54 48 48 49 49 50 48 45 43 41 39
144 135 129 121 113 109 106 99 91 91 90 92 88 83 77 69 74 67 59 56 46 53 96 88 70 56 46 38 35 35 39 42 55 51 48 49 48 48 48 46 43 40 38
147 143 137 132 120 113 107 106 101 95 91 87 85 85 85 81 73 64 60 62 59 56 82 94 81 54 42 35 28 24 30 35 44 57 49 47 45 44 45 44 41 39 36
155 151 148 143 133 128 123 119 116 110 100 90 84 81 81 83 80 75 66 68 67 64 65 90 75 49 36 31 24 20 32 27 30 55 50 49 45 42 43 42 38 36 32
164 161 154 148 142 140 138 134 125 120 109 100 90 80 73 73 70 73 71 69 66 71 62 64 67 56 39 20 6 6 12 18 11 22 22 21 38 54 54 47 38 33 28
172 168 164 157 150 152 145 144 136 131 123 112 100 88 73 61 46 42 44 58 61 58 58 43 42 31 29 10 2 350 350 347 9 5 352 352 356 3 16 47 39 25 15
175 172 174 165 158 154 118 104 167 147 138 131 122 110 105 100 92 79 55 41 26 26 28 29 20 10 10 7 353 336 340 338 346 4 336 338 341 341 344 3 30 10 355
175 175 175 170 168 152 143 154 183 156 147 142 143 133 115 109 134 119 120 125 73 37 3 349 358 359 349 351 338 336 341 337 333 342 329 321 333 329 329 340 0 337 337
178 180 178 175 170 163 157 163 176 175 163 160 162 157 151 138 105 104 133 103 61 44 19 344 353 353 351 343 330 325 322 313 304 318 323 311 321 319 317 307 280 300 306
182 182 179 181 180 172 166 175 194 177 178 176 168 162 168 152 99 292 217 173 146 90 81 52 18 9 12 356 330 315 318 313 314 318 331 312 314 314 304 295 291 277 279
183 180 180 186 185 182 167 182 210 190 189 183 177 169 115 149 116 239 225 232 254 283 277 212 233 245 275 287 291 304 313 311 313 313 337 316 310 316 306 297 309 308 300
Height
1560 1559 1559 1558 1559 1559 1559 1559 1560 1560 1560 1561 1561 1562 1562 1562 1562 1562 1561 1559 1559 1558 1557 1556 1555 1554 1553 1552 1550 1549 1548 1547 1546 1545 1544 1543 1541 1540 1538 1537 1536 1535 1534
1561 1560 1561 1560 1560 1560 1560 1561 1561 1561 1562 1562 1562 1563 1563 1564 1563 1563 1562 1561 1559 1558 1558 1557 1556 1555 1553 1552 1551 1550 1549 1547 1546 1545 1544 1543 1542 1540 1539 1538 1537 1535 1534
1562 1562 1562 1562 1562 1562 1562 1562 1562 1563 1563 1563 1564 1564 1564 1564 1564 1564 1563 1563 1561 1560 1559 1558 1557 1556 1554 1553 1551 1550 1549 1548 1547 1545 1544 1543 1542 1540 1539 1538 1537 1536 1535
1564 1563 1563 1563 1563 1563 1563 1563 1564 1564 1565 1565 1565 1566 1566 1565 1566 1565 1565 1564 1563 1562 1560 1559 1558 1557 1555 1554 1552 1551 1549 1548 1547 1545 1544 1543 1541 1540 1539 1538 1537 1536 1536
1565 1565 1564 1564 1564 1564 1565 1565 1565 1566 1566 1566 1567 1567 1567 1567 1567 1567 1566 1565 1564 1563 1562 1560 1559 1558 1556 1555 1553 1551 1550 1548 1547 1545 1544 1542 1541 1539 1538 1537 1537 1537 1536
1567 1566 1566 1566 1566 1566 1566 1566 1566 1567 1567 1568 1569 1568 1568 1568 1569 1568 1568 1567 1566 1565 1563 1562 1561 1560 1558 1556 1554 1552 1551 1549 1547 1545 1543 1541 1539 1538 1537 1537 1537 1537 1537
1568 1568 1568 1567 1567 1567 1568 1568 1568 1568 1569 1570 1570 1570 1571 1571 1570 1569 1569 1568 1567 1566 1565 1564 1562 1561 1559 1557 1555 1553 1551 1549 1546 1543 1541 1540 1538 1536 1535 1536 1536 1537 1538
1570 1570 1569 1569 1568 1568 1569 1569 1569 1570 1570 1571 1572 1572 1572 1574 1572 1572 1571 1570 1569 1568 1567 1565 1564 1562 1561 1559 1556 1555 1552 1550 1546 1543 1541 1539 1538 1536 1535 1535 1537 1539 1540
1571 1571 1571 1570 1570 1571 1570 1570 1571 1571 1572 1572 1573 1573 1573 1573 1574 1574 1573 1572 1571 1570 1568 1567 1565 1564 1563 1561 1558 1556 1554 1551 1548 1544 1542 1541 1540 1539 1537 1537 1539 1541 1542
1573 1572 1572 1572 1572 1572 1571 1572 1572 1572 1573 1573 1573 1573 1574 1574 1575 1575 1575 1574 1572 1571 1570 1569 1567 1566 1564 1563 1560 1558 1556 1554 1551 1548 1545 1544 1543 1543 1541 1541 1542 1544 1545
1575 1574 1574 1573 1573 1573 1573 1573 1573 1573 1574 1574 1574 1574 1574 1574 1575 1576 1576 1576 1575 1573 1572 1571 1570 1568 1566 1565 1563 1561 1559 1556 1554 1551 1549 1548 1547 1547 1546 1546 1546 1546 1547
1576 1576 1575 1575 1575 1575 1574 1574 1574 1574 1574 1574 1575 1575 1576 1576 1576 1577 1577 1576 1576 1575 1574 1572 1571 1570 1568 1567 1565 1563 1561 1559 1557 1554 1553 1551 1551 1550 1549 1549 1548 1548 1548
1578 1578 1578 1577 1577 1576 1576 1576 1576 1576 1576 1575 1576 1576 1576 1577 1577 1577 1578 1578 1577 1577 1576 1575 1573 1572 1571 1569 1567 1565 1563 1561 1559 1557 1556 1554 1553 1552 1551 1551 1550 1550 1549
1579 1579 1579 1579 1578 1578 1578 1577 1578 1577 1577 1577 1577 1577 1577 1577 1578 1578 1579 1579 1579 1579 1578 1577 1575 1574 1572 1571 1569 1567 1566 1563 1562 1560 1558 1557 1556 1555 1553 1553 1552 1551 1550
1580 1580 1580 1580 1580 1579 1580 1579 1579 1579 1579 1579 1579 1578 1578 1578 1578 1579 1579 1579 1580 1579 1579 1578 1577 1575 1574 1572 1570 1569 1567 1565 1563 1562 1560 1559 1557 1556 1555 1554 1553 1552 1551
1581 1581 1582 1582 1581 1581 1581 1581 1581 1580 1580 1580 1579 1579 1579 1579 1579 1579 1579 1579 1579 1580 1579 1578 1577 1576 1574 1573 1571 1570 1568 1566 1564 1563 1562 1560 1559 1557 1556 1555 1554 1552 1551
1582 1582 1583 1583 1583 1583 1583 1582 1582 1582 1582 1582 1582 1581 1580 1580 1580 1580 1580 1580 1580 1580 1580 1579 1578 1577 1575 1574 1572 1571 1570 1568 1566 1564 1562 1561 1559 1558 1556 1555 1554 1552 1551
1583 1583 1583 1584 1584 1584 1584 1584 1583 1583 1583 1583 1583 1583 1582 1581 1581 1581 1581 1581 1580 1580 1580 1579 1579 1577 1576 1574 1573 1571 1570 1568 1567 1564 1563 1561 1559 1558 1556 1555 1553 1552 1550
1582 1583 1584 1584 1585 1585 1585 1585 1585 1585 1585 1584 1584 1584 1584 1583 1583 1582 1582 1582 1581 1581 1580 1580 1579 1577 1576 1574 1573 1572 1570 1568 1567 1565 1563 1561 1559 1557 1556 1554 1552 1551 1549
1582 1583 1584 1585 1585 1585 1586 1586 1586 1586 1586 1585 1585 1584 1584 1584 1584 1583 1583 1582 1582 1581 1581 1580 1579 1578 1576 1575 1573 1572 1570 1568 1566 1565 1563 1561 1559 1557 1555 1553 1552 1550 1548
1582 1583 1584 1584 1585 1585 1586 1586 1586 1586 1586 1586 1586 1585 1585 1584 1584 1583 1583 1583 1582 1582 1581 1581 1579 1578 1577 1575 1573 1571 1570 1568 1566 1564 1562 1561 1559 1557 1555 1553 1551 1549 1547
1581 1582 1583 1584 1584 1585 1585 1585 1586 1587 1587 1586 1586 1586 1585 1585 1584 1584 1583 1582 1582 1582 1581 1580 1579 1578 1577 1575 1573 1571 1569 1568 1566 1564 1562 1560 1558 1556 1554 1552 1550 1547 1545
1579 1580 1582 1582 1583 1584 1584 1585 1585 1586 1586 1586 1586 1586 1585 1585 1584 1584 1583 1582 1582 1581 1580 1580 1579 1578 1576 1575 1573 1571 1569 1567 1565 1563 1560 1559 1557 1555 1553 1550 1548 1545 1543
1577 1579 1580 1581 1582 1583 1583 1584 1584 1585 1585 1585 1585 1585 1585 1585 1584 1584 1583 1583 1582 1581 1580 1579 1578 1577 1575 1573 1571 1570 1568 1566 1563 1561 1559 1557 1555 1553 1551 1548 1545 1543 1540
1575 1577 1578 1579 1580 1581 1582 1583 1583 1584 1584 1584 1584 1584 1584 1584 1583 1583 1583 1582 1581 1580 1579 1577 1576 1575 1574 1572 1570 1568 1566 1565 1563 1560 1557 1555 1553 1550 1548 1546 1543 1540 1537
1572 1574 1575 1577 1578 1579 1580 1581 1581 1582 1583 1583 1583 1583 1582 1583 1582 1582 1582 1581 1580 1579 1578 1576 1575 1573 1572 1570 1568 1567 1565 1563 1561 1559 1556 1553 1551 1548 1545 1543 1540 1537 1534